sat.trackr.live / text

‹ back to catalog

FOSSASAT-2E20 (TAT-O)

NORAD 63003 · 2025-009DN

PAYLOAD ACTIVE UNKNOWN

§ Identity

Operator
Country
SPN
Launch date
2025-01-14
Launch site
AFWTR
Launch vehicle
Mass (kg)
RCS (m²)

External: N2YO · Heavens-Above · Gunter

§ Orbital elements

Epoch: 2026-09-22T16:21:31.352832Z

Period
94.00 min
Inclination
97.3092°
Eccentricity
0.0002495
Mean motion
15.31920715 rev/d
Perigee alt
468.4 km
Apogee alt
471.8 km
Semi-major
6,848.2 km
B*
3.1388e-4
RAAN
340.1583°
Arg perigee
15.4169°
Mean anomaly
344.7148°
Rev number
15,142

§ Raw data

FOSSASAT-2E20 (TAT-O)1 63003U 25009DN  26265.68161288  .00009600  00000+0  31388-3 0  99992 63003  97.3092 340.1583 0002495  15.4169 344.7148 15.31920715151422

JSON: /api/v1/satellites/63003 · /tle

For live sub-satellite position, see the globe view (requires WebGL).

§ Visibility from observer

Set your observer location to see the next 7 days of passes ≥ 10°. The values pass through the URL so the page stays shareable.

No JS? Fill the form by hand. The geolocation button needs JavaScript.

§ Radio — SatNOGS DB

ModeDescriptionDownlinkUplink
LoRa Mode U - LoRa 401.700 MHz

1 transmitter · refreshed weekly from db.satnogs.org